カタログに戻る

STARLINK-32334

運用中通信VLEO
NORAD 62023·PAYLOAD·🇺🇸 United States

打ち上げ Nov 18, 2024 から Vandenberg Space Force Base

Loading…

次のパス (今後24時間)

TLE

最新Source: CelesTrak SupGP

元期: Sep 14, 2026, 20:48 UTC

1 62023C 24213R   26257.86715278  .00024970  00000+0  73797-3 0  2575
2 62023  53.1608   8.1281 0001208  81.6273  35.2400 15.34369286    18

AllMySatでSTARLINK-32334をリアルタイム追跡

Download on the App Store